Location: Acton
(51.4942°N, 0.2232°W)
Time: 12:49:36
(UTC+00:00)

Cosmos 2150 Rocket - Pass Details

Date: 18 September 2020
Orbit: 749 x 808 km, 74.0° (Epoch: 25 October)

Event Time Altitude Azimuth Distance (km) Brightness Sun altitude
Rises 20:27:57 0° 207° (SSW) 3,268 7.2 -21.5°
Reaches altitude 10° 20:30:20 10° 209° (SSW) 2,352 6.5 -21.8°
Maximum altitude 20:35:42 77° 296° (WNW) 825 4.2 -22.5°
Drops below altitude 10° 20:41:11 10° 23° (NNE) 2,397 6.7 -23.2°
Sets 20:43:37 0° 25° (NNE) 3,336 7.4 -23.5°
